Tracking 27188 objects as of 1-Apr-2023
HD Live streaming from Space Station
objects crossing your sky now

STARLINK-5006

Track STARLINK-5006 now!
10-day predictions
STARLINK-5006 is classified as:


NORAD ID: 55422
Int'l Code: 2023-014AH
Perigee: 364.6 km
Apogee: 368.0 km
Inclination: 70.0 °
Period: 91.7 minutes
Semi major axis: 6737 km
RCS: Unknown
Launch date: January 31, 2023
Source: United States (US)
Launch site: AIR FORCE WESTERN TEST RANGE (AFWTR)
Your satellite tracking list
Your tracking list is empty




NASA's NSSDC Master Catalog

Two Line Element Set (TLE):
1 55422U 23014AH  23090.49431826  .00001732  00000-0  16169-4 0  9999
2 55422  69.9992 284.3622 0002517 269.9549  90.1358 15.69922939  9437
Source of the keplerian elements: AFSPC